Glens Falls, NY

11:43 PM EDT on October 23, 2019 (GMT -0400)
Bennett Memorial

Weather History for KGFL - August, 2019

Change the Weather History Date:

Sunday, August 18, 2019

  Actual Average Record
Temperature  
Mean Temperature 73 °F 67 °F  
Max Temperature 82 °F 79 °F 93 °F (1916)
Min Temperature 64 °F 55 °F 42 °F (1981)
Degree Days  
Heating Degree Days 0 1  
Month to date heating degree days 5 18  
Since 1 June heating degree days 75 129  
Since 1 July heating degree days 5 39  
Cooling Degree Days 8 3  
Month to date cooling degree days 76 70  
Year to date cooling degree days 372 290  
Since 1 June cooling degree days 363 278  
Growing Degree Days 22 (Base 50)    
Moisture  
Dew Point 66 °F    
Average Humidity 84    
Maximum Humidity 100    
Minimum Humidity 67    
Precipitation  
Precipitation 0.01 in 0.12 in 2.48 in (1994)
Month to date precipitation 2.27 2.30  
Year to date precipitation 28.21 24.43  
Sea Level Pressure  
Sea Level Pressure 29.98 in    
Wind  
Wind Speed 4 mph (SSW)    
Max Wind Speed 14 mph    
Max Gust Speed 19 mph    
Visibility 9 miles    
Events Rain , Thunderstorm    
T = Trace of Precipitation, MM = Missing Value Source: NWS Daily Summary

Daily Weather History Graph

Daily Weather History Graph

Search for Another Location

Airport or City:

Astronomy

Aug. 18, 2019 Rise Set
Actual Time 6:02 AM EDT 7:53 PM EDT
Civil Twilight 5:32 AM EDT 8:23 PM EDT
Nautical Twilight 4:54 AM EDT 9:00 PM EDT
Astronomical Twilight 4:14 AM EDT 9:41 PM EDT
Moon 9:42 PM EDT (8/18) 8:48 AM EDT (8/18)
Length of Visible Light 14h 51m
Length of Day
13h 50m
Waning Gibbous, 91% of the Moon is Illuminated
Aug 18
Waning Gibbous
Aug 23
Last Quarter
Aug 30
New
Sep 5
First Quarter
Sep 14
Full

Hourly Weather History & Observations

Time (EDT) Temp. Heat Index Dew Point Humidity Pressure Visibility Wind Dir Wind Speed Gust Speed Precip Events Conditions
12:53 AM 64.9 °F - 64.0 °F 97% 29.99 in 9.0 mi SSE 3.5 mph - 0.00 in   Mostly Cloudy
1:08 AM 64.9 °F - 64.0 °F 97% 30.00 in 8.0 mi South 5.8 mph - N/A   Overcast
1:27 AM 64.9 °F - 64.9 °F 100% 29.99 in 7.0 mi South 4.6 mph - N/A   Overcast
1:53 AM 66.0 °F - 64.9 °F 96% 29.99 in 7.0 mi SSW 4.6 mph - N/A   Overcast
2:28 AM 66.0 °F - 64.9 °F 96% 30.00 in 8.0 mi SW 4.6 mph - N/A   Overcast
2:53 AM 66.0 °F - 64.0 °F 93% 29.99 in 9.0 mi SSW 4.6 mph - N/A   Overcast
3:46 AM 66.0 °F - 64.9 °F 96% 29.99 in 7.0 mi Calm Calm - N/A   Overcast
3:53 AM 66.0 °F - 64.0 °F 93% 29.98 in 9.0 mi Calm Calm - N/A   Overcast
4:07 AM 66.0 °F - 64.0 °F 93% 29.99 in 10.0 mi Calm Calm - N/A   Overcast
4:53 AM 66.0 °F - 64.0 °F 93% 30.00 in 10.0 mi SSW 3.5 mph - N/A   Overcast
5:53 AM 66.0 °F - 64.0 °F 93% 30.00 in 10.0 mi NNW 3.5 mph - N/A   Overcast
6:53 AM 66.0 °F - 64.0 °F 93% 30.01 in 8.0 mi Calm Calm - N/A   Overcast
7:05 AM 64.9 °F - 64.0 °F 97% 30.02 in 7.0 mi Calm Calm - N/A   Overcast
7:53 AM 66.0 °F - 64.0 °F 93% 30.02 in 5.0 mi SSW 3.5 mph - N/A   Overcast
8:53 AM 66.9 °F - 64.9 °F 93% 30.04 in 6.0 mi SW 3.5 mph - N/A   Overcast
9:53 AM 66.9 °F - 64.9 °F 93% 30.04 in 9.0 mi South 3.5 mph - N/A   Overcast
10:53 AM 68.0 °F - 64.9 °F 90% 30.05 in 10.0 mi South 5.8 mph - N/A   Overcast
11:53 AM 69.1 °F - 66.0 °F 90% 30.02 in 10.0 mi SE 5.8 mph - N/A   Overcast
12:46 PM 71.1 °F - 66.0 °F 84% 30.01 in 10.0 mi South 4.6 mph - N/A   Overcast
12:53 PM 71.1 °F - 66.0 °F 84% 30.01 in 10.0 mi Calm Calm - N/A   Overcast
1:53 PM 75.9 °F - 66.9 °F 74% 30.01 in 10.0 mi SSE 5.8 mph - N/A   Scattered Clouds
2:53 PM 78.1 °F - 68.0 °F 71% 29.97 in 10.0 mi East 6.9 mph - N/A   Clear
3:53 PM 80.1 °F 82.7 °F 68.0 °F 67% 29.96 in 10.0 mi SSE 3.5 mph - N/A   Clear
4:53 PM 81.0 °F 83.8 °F 68.0 °F 65% 29.95 in 10.0 mi SSE 6.9 mph - N/A   Clear
5:53 PM 80.1 °F 82.9 °F 69.1 °F 69% 29.93 in 10.0 mi Calm Calm - N/A   Clear
6:53 PM 77.0 °F - 71.1 °F 82% 29.93 in 10.0 mi SSW 8.1 mph - 0.01 in Rain Light Rain
7:00 PM 75.9 °F - 71.1 °F 85% 29.93 in 10.0 mi SW 5.8 mph - 0.00 in Thunderstorm Partly Cloudy
7:15 PM 75.0 °F - 70.0 °F 84% 29.93 in 10.0 mi WSW 5.8 mph - 0.00 in   Clear
7:30 PM 75.0 °F - 68.0 °F 79% 29.95 in 10.0 mi West 8.1 mph - 0.00 in Thunderstorm Partly Cloudy
7:45 PM 75.0 °F - 68.0 °F 79% 29.92 in 10.0 mi North 4.6 mph - 0.00 in Rain Light Rain
7:53 PM 73.9 °F - 68.0 °F 82% 29.92 in 10.0 mi Calm Calm - 0.00 in Rain Light Rain
8:11 PM 73.0 °F - 69.1 °F 87% 29.92 in 10.0 mi South 4.6 mph - 0.00 in Thunderstorm Clear
8:26 PM 73.0 °F - 68.0 °F 84% 29.91 in 10.0 mi NNW 3.5 mph - 0.00 in   Clear
8:53 PM 71.1 °F - 68.0 °F 90% 29.94 in 10.0 mi South 8.1 mph - 0.00 in Rain Light Rain
9:53 PM 70.0 °F - 66.9 °F 90% 29.95 in 10.0 mi SSW 8.1 mph - 0.00 in Thunderstorm Scattered Clouds
10:11 PM 70.0 °F - 66.9 °F 90% 29.96 in 10.0 mi WSW 4.6 mph - N/A   Mostly Cloudy
10:53 PM 69.1 °F - 66.9 °F 93% 29.94 in 10.0 mi South 8.1 mph - N/A   Clear
11:53 PM 69.1 °F - 66.9 °F 93% 29.92 in 10.0 mi SSE 4.6 mph - N/A   Mostly Cloudy